Hourly Data Report for March 13, 2017

PORT ALBERNI (AUT)
BRITISH COLUMBIA

49°18'59.700" N
124°55'36.600" W
76.20 m
1036B06
71475
WQC

Download Data

Hourly Data (March 2017)
Hourly Data Report for March 13, 2017
TIME
LST
Temp Definition
°C
Dew Point Definition
°C
Rel Hum Definition
%
Precip. Amount Definition
mm

Wind Dir Definition
10's deg

Wind Spd Definition
km/h
Visibility Definition
km
Stn Press Definition
kPa
Hmdx Definition


Wind Chill Definition


Weather Definition


00:00 5.1 4.8 98 1.5 32 5   100.94     LegendNANA
01:00 4.8 4.3 97 0.6 32 9   100.87     LegendNANA
02:00 4.7 4.3 98 0.5 27 4   100.75     LegendNANA
03:00 4.6 4.2 97 0.1 32 8   100.75     LegendNANA
04:00 4.3 4.0 98 0.2 33 2   100.73     LegendNANA
05:00 4.0 3.8 98 0.1 0 1   100.70     LegendNANA
06:00 4.1 3.8 98 0.3 18 2   100.64     LegendNANA
07:00 4.1 3.8 98 0.0 24 2   100.70     LegendNANA
08:00 4.3 4.1 98 0.0 21 2   100.71     LegendNANA
09:00 4.8 4.4 97 0.1 26 3   100.76     LegendNANA
10:00 5.8 5.0 95 0.0 30 1   100.79     LegendNANA
11:00 6.9 6.0 94 0.0 7 1   100.78     LegendNANA
12:00 8.2 6.2 87 0.0 31 2   100.76     LegendNANA
13:00 8.7 6.9 89 0.0 25 5   100.76     LegendNANA
14:00 9.3 6.8 84 0.0 25 4   100.72     LegendNANA
15:00 10.1 8.0 87 0.0 22 5   100.72     LegendNANA
16:00 9.9 8.1 89 0.0 16 4   100.70     LegendNANA
17:00 9.4 8.2 92 0.0 17 5   100.67     LegendNANA
18:00 8.6 7.8 95 0.0 17 2   100.65     LegendNANA
19:00 7.6 6.9 96 0.0 20 2   100.66     LegendNANA
20:00 7.3 6.7 97 0.0 24 2   100.63     LegendNANA
21:00 7.2 6.8 97 0.2 29 3   100.61     LegendNANA
22:00 6.8 6.5 98 1.4 21 4   100.55     LegendNANA
23:00 6.5 6.2 98 0.5 26 2   100.48     LegendNANA

Notes on Data Quality.

Legend

  • E = Estimated
  • M = Missing
  • NA = Not Available*
  • [empty] = Indicates an unobserved value
Date modified: